SVR1821 URSS-HEGN

Flight info

Callsign SVR1821
Flight time N/A
Altitude 34000
Route LAMET1C LAMET G487 ODIRA UW96 SIN UT61 BAG UW77 AYT M855 PEDER DCT RASDA A16 CVO L315 HGD DCT
Aircraft A321/M-SDE3FGHIRWY/LB1

Departure

Time 2026-05-05 07:31
Airport Sochi International Airport (URSS)

Arrival

Time N/A
Airport Hurghada International Airport (HEGN)
Time Latitude Longitude Altitude Speed Heading
2026-05-05 06:20 43.44837 39.94441 67 ft 0 kts 335°
2026-05-05 07:21 43.44826 39.94448 64 ft 3 kts 334°
2026-05-05 07:21 43.44808 39.94460 72 ft 3 kts 336°
2026-05-05 07:21 43.44789 39.94471 69 ft 3 kts 340°
2026-05-05 07:21 43.44770 39.94479 66 ft 3 kts 346°
2026-05-05 07:22 43.44750 39.94485 65 ft 3 kts 356°
2026-05-05 07:22 43.44730 39.94484 66 ft 3 kts 19°
2026-05-05 07:22 43.44717 39.94474 66 ft 2 kts 62°
2026-05-05 07:22 43.44714 39.94465 66 ft 0 kts 65°
2026-05-05 07:27 43.44720 39.94484 59 ft 6 kts 65°
2026-05-05 07:27 43.44749 39.94569 70 ft 14 kts 65°
2026-05-05 07:27 43.44799 39.94716 65 ft 18 kts 65°
2026-05-05 07:27 43.44853 39.94876 71 ft 18 kts 64°
2026-05-05 07:28 43.44905 39.95025 83 ft 16 kts 64°
2026-05-05 07:28 43.44952 39.95156 84 ft 14 kts 64°
2026-05-05 07:28 43.44991 39.95267 90 ft 12 kts 64°
2026-05-05 07:28 43.45022 39.95360 89 ft 10 kts 65°
2026-05-05 07:29 43.45048 39.95437 92 ft 8 kts 65°
2026-05-05 07:29 43.45087 39.95511 93 ft 11 kts 34°
2026-05-05 07:29 43.45169 39.95578 92 ft 15 kts 28°
2026-05-05 07:29 43.45244 39.95680 93 ft 16 kts 59°
2026-05-05 07:30 43.45296 39.95803 97 ft 10 kts 62°
2026-05-05 07:30 43.45245 39.95822 94 ft 0 kts 208°
2026-05-05 07:30 43.45222 39.95805 95 ft 14 kts 208°
2026-05-05 07:31 43.44910 39.95572 89 ft 87 kts 209°
2026-05-05 07:31 43.44188 39.95026 83 ft 148 kts 209°
2026-05-05 07:31 43.43192 39.94254 459 ft 168 kts 211°
2026-05-05 07:31 43.42148 39.93482 1199 ft 172 kts 206°
2026-05-05 07:32 43.40963 39.93092 1839 ft 181 kts 189°
2026-05-05 07:32 43.39699 39.92807 2263 ft 187 kts 189°
2026-05-05 07:32 43.38376 39.92565 2648 ft 196 kts 187°
2026-05-05 07:32 43.36989 39.92304 2982 ft 208 kts 188°
2026-05-05 07:33 43.35490 39.91986 3178 ft 227 kts 189°
2026-05-05 07:33 43.33853 39.91595 3276 ft 252 kts 191°
2026-05-05 07:33 43.32083 39.91128 3687 ft 263 kts 192°
2026-05-05 07:33 43.30271 39.90642 4288 ft 268 kts 192°
2026-05-05 07:34 43.28429 39.90142 4916 ft 271 kts 192°
2026-05-05 07:34 43.26566 39.89645 5511 ft 274 kts 191°
2026-05-05 07:34 43.24681 39.89176 6160 ft 276 kts 193°
2026-05-05 07:34 43.22885 39.88248 6758 ft 277 kts 213°
2026-05-05 07:35 43.21476 39.86484 7350 ft 276 kts 236°
2026-05-05 07:35 43.20704 39.84108 7952 ft 276 kts 258°
2026-05-05 07:35 43.20630 39.81482 8530 ft 278 kts 274°
2026-05-05 07:35 43.20792 39.78837 9151 ft 279 kts 275°
2026-05-05 07:36 43.20976 39.76180 9752 ft 282 kts 275°
2026-05-05 07:36 43.21176 39.73483 10219 ft 289 kts 275°
2026-05-05 07:36 43.21368 39.70650 10339 ft 308 kts 274°
2026-05-05 07:36 43.21549 39.67643 10467 ft 325 kts 274°
2026-05-05 07:37 43.21734 39.64478 10600 ft 341 kts 274°
2026-05-05 07:37 43.21929 39.61188 10932 ft 349 kts 274°
2026-05-05 07:37 43.22125 39.57848 11403 ft 353 kts 273°
2026-05-05 07:37 43.22321 39.54475 11891 ft 357 kts 273°
2026-05-05 07:38 43.22514 39.51068 12339 ft 362 kts 273°
2026-05-05 07:38 43.22705 39.47607 12471 ft 376 kts 273°
2026-05-05 07:38 43.22902 39.43983 12716 ft 385 kts 273°
2026-05-05 07:38 43.23101 39.40307 13143 ft 389 kts 273°
2026-05-05 07:39 43.23301 39.36595 13600 ft 392 kts 273°
2026-05-05 07:39 43.23504 39.32857 14027 ft 395 kts 273°
2026-05-05 07:39 43.23708 39.29089 14439 ft 398 kts 273°
2026-05-05 07:39 43.23911 39.25296 14847 ft 400 kts 273°
2026-05-05 07:40 43.24112 39.21477 15243 ft 403 kts 273°
2026-05-05 07:40 43.24311 39.17634 15648 ft 405 kts 273°
2026-05-05 07:40 43.24510 39.13769 16033 ft 408 kts 273°
2026-05-05 07:40 43.24709 39.09871 16415 ft 411 kts 273°
2026-05-05 07:41 43.24910 39.05950 16790 ft 413 kts 273°
2026-05-05 07:41 43.25112 39.02008 17165 ft 416 kts 273°
2026-05-05 07:41 43.25314 38.98041 17528 ft 418 kts 273°
2026-05-05 07:41 43.25515 38.94048 17905 ft 421 kts 273°
2026-05-05 07:42 43.25715 38.90023 18256 ft 424 kts 273°
2026-05-05 07:42 43.25915 38.85979 18572 ft 426 kts 273°
2026-05-05 07:42 43.26096 38.81907 18922 ft 428 kts 270°
2026-05-05 07:42 43.25886 38.77846 19261 ft 428 kts 259°
2026-05-05 07:43 43.25132 38.73900 19593 ft 429 kts 248°
2026-05-05 07:43 43.24034 38.70092 19919 ft 430 kts 247°
2026-05-05 07:43 43.22923 38.66276 20260 ft 432 kts 247°
2026-05-05 07:43 43.21807 38.62436 20591 ft 435 kts 247°
2026-05-05 07:44 43.20691 38.58575 20915 ft 437 kts 247°
2026-05-05 07:44 43.19571 38.54695 21234 ft 439 kts 247°
2026-05-05 07:44 43.18447 38.50801 21556 ft 441 kts 247°
2026-05-05 07:44 43.17315 38.46887 21873 ft 442 kts 247°
2026-05-05 07:45 43.16176 38.42961 22203 ft 444 kts 247°
2026-05-05 07:45 43.15037 38.39039 22669 ft 442 kts 247°
2026-05-05 07:45 43.13900 38.35132 23104 ft 442 kts 247°
2026-05-05 07:45 43.12756 38.31222 23435 ft 443 kts 247°
2026-05-05 07:46 43.11605 38.27296 23730 ft 445 kts 247°
2026-05-05 07:46 43.10448 38.23355 23979 ft 447 kts 247°
2026-05-05 07:46 43.09282 38.19395 24232 ft 450 kts 247°
2026-05-05 07:46 43.08112 38.15417 24477 ft 452 kts 247°
2026-05-05 07:47 43.06946 38.11422 24718 ft 454 kts 247°
2026-05-05 07:47 43.05780 38.07401 24963 ft 456 kts 247°
2026-05-05 07:47 43.04610 38.03359 25204 ft 458 kts 247°
2026-05-05 07:47 43.03435 37.99303 25437 ft 460 kts 247°
2026-05-05 07:48 43.02249 37.95227 25693 ft 461 kts 247°
2026-05-05 07:48 43.01051 37.91149 25928 ft 464 kts 247°
2026-05-05 07:48 42.99853 37.87107 26086 ft 467 kts 246°
2026-05-05 07:48 42.98632 37.82999 26365 ft 467 kts 247°
2026-05-05 07:49 42.97411 37.78895 26660 ft 467 kts 246°
2026-05-05 07:49 42.96185 37.74784 26942 ft 467 kts 246°
2026-05-05 07:49 42.94958 37.70685 27221 ft 467 kts 246°
2026-05-05 07:49 42.93731 37.66583 27513 ft 467 kts 246°
2026-05-05 07:50 42.92509 37.62494 27969 ft 463 kts 246°
2026-05-05 07:50 42.91298 37.58438 28338 ft 462 kts 246°
2026-05-05 07:50 42.90082 37.54387 28656 ft 462 kts 246°
2026-05-05 07:50 42.88864 37.50340 28962 ft 462 kts 246°
2026-05-05 07:51 42.87640 37.46291 29253 ft 462 kts 246°
2026-05-05 07:51 42.86411 37.42242 29551 ft 462 kts 246°
2026-05-05 07:51 42.85182 37.38200 29851 ft 462 kts 246°
2026-05-05 07:51 42.83950 37.34154 30127 ft 462 kts 246°
2026-05-05 07:52 42.82721 37.30114 30363 ft 462 kts 246°
2026-05-05 07:52 42.81492 37.26071 30611 ft 462 kts 246°
2026-05-05 07:52 42.80261 37.22034 30803 ft 462 kts 247°
2026-05-05 07:52 42.79023 37.17983 30963 ft 464 kts 247°
2026-05-05 07:53 42.77782 37.13923 31162 ft 464 kts 247°
2026-05-05 07:53 42.76542 37.09866 31386 ft 464 kts 247°
2026-05-05 07:53 42.75300 37.05810 31608 ft 464 kts 247°
2026-05-05 07:53 42.74052 37.01745 31739 ft 466 kts 247°
2026-05-05 07:54 42.72799 36.97673 31868 ft 468 kts 247°
2026-05-05 07:54 42.71537 36.93580 32000 ft 470 kts 247°
2026-05-05 07:54 42.70247 36.89499 32116 ft 471 kts 245°
2026-05-05 07:54 42.68864 36.85453 32255 ft 472 kts 244°
2026-05-05 07:55 42.67412 36.81450 32386 ft 473 kts 243°
2026-05-05 07:55 42.65916 36.77464 32513 ft 474 kts 242°
2026-05-05 07:55 42.64406 36.73479 32663 ft 474 kts 242°
2026-05-05 07:55 42.62905 36.69489 32821 ft 474 kts 243°
2026-05-05 07:56 42.61424 36.65491 33002 ft 474 kts 243°
2026-05-05 07:56 42.59958 36.61483 33156 ft 474 kts 243°
2026-05-05 07:56 42.58502 36.57476 33320 ft 473 kts 243°
2026-05-05 07:56 42.57048 36.53472 33485 ft 473 kts 243°
2026-05-05 07:57 42.55592 36.49475 33633 ft 473 kts 243°
2026-05-05 07:57 42.54130 36.45480 33808 ft 472 kts 243°
2026-05-05 07:57 42.52665 36.41493 33971 ft 472 kts 243°
2026-05-05 07:57 42.51202 36.37520 34015 ft 472 kts 243°
2026-05-05 07:58 42.48266 36.29563 34018 ft 472 kts 243°
2026-05-05 07:58 42.45318 36.21605 34013 ft 473 kts 243°
2026-05-05 07:59 42.42384 36.13702 34015 ft 473 kts 243°
2026-05-05 07:59 42.39425 36.05759 34016 ft 473 kts 243°
2026-05-05 08:00 42.36448 35.97812 34029 ft 474 kts 243°
2026-05-05 08:00 42.33475 35.89866 34035 ft 474 kts 243°
2026-05-05 08:01 42.30498 35.81914 34044 ft 474 kts 243°
2026-05-05 08:01 42.27512 35.73961 34045 ft 474 kts 243°
2026-05-05 08:02 42.24522 35.66020 34045 ft 475 kts 243°
2026-05-05 08:02 42.21518 35.58088 34049 ft 475 kts 243°
2026-05-05 08:03 42.18508 35.50163 34049 ft 475 kts 243°
2026-05-05 08:03 42.15492 35.42246 34049 ft 475 kts 243°
2026-05-05 08:04 42.12476 35.34325 34025 ft 476 kts 244°
2026-05-05 08:04 42.09459 35.26363 34016 ft 478 kts 244°
2026-05-05 08:05 42.06419 35.18382 34023 ft 480 kts 243°
2026-05-05 08:05 42.03296 35.10435 34030 ft 481 kts 238°
2026-05-05 08:06 41.99019 35.03642 34031 ft 480 kts 221°
2026-05-05 08:06 41.94022 34.97666 34035 ft 481 kts 221°
2026-05-05 08:07 41.89022 34.91687 34026 ft 481 kts 221°
2026-05-05 08:07 41.84026 34.85706 34023 ft 482 kts 221°
2026-05-05 08:08 41.79022 34.79728 34024 ft 482 kts 221°
2026-05-05 08:08 41.74009 34.73766 34008 ft 482 kts 221°
2026-05-05 08:09 41.68997 34.67819 34016 ft 481 kts 221°
2026-05-05 08:09 41.63984 34.61885 34007 ft 481 kts 221°
2026-05-05 08:10 41.58978 34.55956 34004 ft 481 kts 221°
2026-05-05 08:10 41.53973 34.50030 34004 ft 481 kts 221°
2026-05-05 08:11 41.48985 34.44091 34004 ft 481 kts 221°
2026-05-05 08:11 41.43998 34.38158 33998 ft 480 kts 222°
2026-05-05 08:12 41.38997 34.32242 34000 ft 481 kts 221°
2026-05-05 08:12 41.33991 34.26340 34002 ft 481 kts 221°
2026-05-05 08:13 41.29018 34.20483 34009 ft 480 kts 221°
2026-05-05 08:13 41.24004 34.14613 34001 ft 480 kts 221°
2026-05-05 08:14 41.18991 34.08764 33999 ft 480 kts 221°
2026-05-05 08:14 41.13985 34.02922 33993 ft 479 kts 221°
2026-05-05 08:15 41.08975 33.97089 33996 ft 479 kts 221°
2026-05-05 08:15 41.03968 33.91272 33986 ft 479 kts 221°
2026-05-05 08:16 40.98952 33.85467 33985 ft 479 kts 221°
2026-05-05 08:16 40.93935 33.79671 33986 ft 479 kts 221°
2026-05-05 08:17 40.88922 33.73881 33983 ft 479 kts 222°
2026-05-05 08:17 40.83896 33.68097 33982 ft 479 kts 222°
2026-05-05 08:18 40.78866 33.62314 33981 ft 479 kts 222°
2026-05-05 08:18 40.74687 33.57514 33971 ft 480 kts 222°
2026-05-05 08:19 40.69646 33.51735 33970 ft 481 kts 222°
2026-05-05 08:19 40.64591 33.45959 33977 ft 481 kts 222°
2026-05-05 08:20 40.59527 33.40197 33973 ft 482 kts 222°
2026-05-05 08:20 40.54450 33.34423 33970 ft 483 kts 223°
2026-05-05 08:21 40.49369 33.28645 33972 ft 483 kts 222°
2026-05-05 08:21 40.44269 33.22868 33962 ft 485 kts 223°
2026-05-05 08:22 40.39160 33.17085 33973 ft 486 kts 223°
2026-05-05 08:22 40.34038 33.11297 33988 ft 486 kts 222°
2026-05-05 08:23 40.28899 33.05521 33988 ft 487 kts 223°
2026-05-05 08:23 40.23751 32.99746 34003 ft 488 kts 223°
2026-05-05 08:24 40.18634 32.94006 34000 ft 488 kts 223°
2026-05-05 08:24 40.13472 32.88229 34006 ft 489 kts 223°
2026-05-05 08:25 40.08287 32.82471 34005 ft 489 kts 219°
2026-05-05 08:25 40.02438 32.77912 34001 ft 492 kts 208°
2026-05-05 08:26 39.96340 32.73842 34007 ft 492 kts 208°
2026-05-05 08:26 39.90257 32.69772 34006 ft 492 kts 208°
2026-05-05 08:27 39.84173 32.65693 34015 ft 492 kts 208°
2026-05-05 08:27 39.78082 32.61620 33992 ft 492 kts 208°
2026-05-05 08:28 39.71977 32.57556 33993 ft 493 kts 208°
2026-05-05 08:28 39.65857 32.53498 33996 ft 494 kts 208°
2026-05-05 08:29 39.59738 32.49444 34013 ft 494 kts 208°
2026-05-05 08:30 39.50547 32.43362 34023 ft 494 kts 208°
2026-05-05 08:30 39.44421 32.39322 34028 ft 494 kts 208°
2026-05-05 08:31 39.38304 32.35293 34026 ft 494 kts 209°
2026-05-05 08:31 39.32173 32.31277 34005 ft 494 kts 208°
2026-05-05 08:32 39.26022 32.27278 34008 ft 495 kts 208°
2026-05-05 08:32 39.19908 32.23311 34019 ft 495 kts 208°
2026-05-05 08:33 39.13758 32.19322 34026 ft 495 kts 208°
2026-05-05 08:33 39.07604 32.15331 34031 ft 495 kts 209°
2026-05-05 08:34 39.01456 32.11358 34031 ft 494 kts 208°
2026-05-05 08:34 38.95310 32.07397 34012 ft 494 kts 209°
2026-05-05 08:35 38.89161 32.03433 34011 ft 494 kts 209°
2026-05-05 08:35 38.83011 31.99480 34020 ft 495 kts 209°
2026-05-05 08:36 38.76854 31.95528 34035 ft 495 kts 209°
2026-05-05 08:36 38.70692 31.91597 34038 ft 494 kts 209°
2026-05-05 08:37 38.64539 31.87671 34038 ft 494 kts 209°
2026-05-05 08:37 38.58391 31.83742 34037 ft 494 kts 209°
2026-05-05 08:38 38.52251 31.79833 34006 ft 493 kts 209°
2026-05-05 08:38 38.46116 31.75935 34025 ft 492 kts 209°
2026-05-05 08:39 38.39988 31.72049 34040 ft 492 kts 209°
2026-05-05 08:39 38.33863 31.68176 34045 ft 491 kts 209°
2026-05-05 08:40 38.27746 31.64312 34040 ft 491 kts 209°
2026-05-05 08:40 38.21676 31.60484 34037 ft 490 kts 209°
2026-05-05 08:41 38.15561 31.56633 34032 ft 490 kts 209°
2026-05-05 08:41 38.09448 31.52792 34025 ft 490 kts 209°
2026-05-05 08:42 38.03297 31.49070 33997 ft 490 kts 208°
2026-05-05 08:42 37.97119 31.45414 34017 ft 490 kts 208°
2026-05-05 08:43 37.90956 31.41747 34024 ft 489 kts 209°
2026-05-05 08:43 37.84818 31.38055 34026 ft 488 kts 209°
2026-05-05 08:44 37.78687 31.34380 34014 ft 487 kts 209°
2026-05-05 08:44 37.72556 31.30725 34007 ft 487 kts 209°
2026-05-05 08:45 37.66436 31.27081 34006 ft 486 kts 209°
2026-05-05 08:45 37.60365 31.23466 33969 ft 485 kts 210°
2026-05-05 08:46 37.54259 31.19842 33976 ft 485 kts 210°
2026-05-05 08:46 37.48155 31.16231 33987 ft 485 kts 210°
2026-05-05 08:47 37.42019 31.12597 33978 ft 484 kts 210°
2026-05-05 08:47 37.35972 31.09018 33975 ft 483 kts 211°
2026-05-05 08:48 37.30013 31.05180 33972 ft 480 kts 214°
2026-05-05 08:48 37.24181 31.01114 33969 ft 479 kts 215°
2026-05-05 08:49 37.18350 30.97064 33977 ft 479 kts 214°
2026-05-05 08:49 37.12482 30.93111 33982 ft 478 kts 214°
2026-05-05 08:50 37.06618 30.89193 33992 ft 477 kts 214°
2026-05-05 08:50 37.00777 30.85283 33996 ft 475 kts 214°
2026-05-05 08:51 36.95108 30.81633 34000 ft 479 kts 207°
2026-05-05 08:51 36.92039 30.80373 33999 ft 491 kts 198°
2026-05-05 08:51 36.87681 30.79633 33999 ft 496 kts 185°
2026-05-05 08:52 36.84217 30.79708 34000 ft 498 kts 182°